Date String (YYYY-MM-DD hh:mm:ss) UTC,Instrument flags,absolute air pressure of the measurement (hPa),sample flow rate (lpm),inlet stack bypass flow (lpm),air temperature of the measurement (°C),ambient temperature measured by the external sensor (°C),aerosol sample conditioner tube jacket temperature (°C),OPC LED temperature (°C),internal box temperature (°C),relative humidity of the measurement (%),span deviation,mass concentration of particles derived from Lorenz-Mie calculation of OPC scattering (μg/m³),mass concentration of particles derived from Lorenz-Mie calculation of OPC scattering (μg/m³),mass concentration of particles derived from Lorenz-Mie calculation of OPC scattering (μg/m³)
DateTimeUTC,F1_M11,P_M11,Q1_M11,Q2_M11,T1_M11,T2_M11,T3_M11,T4_M11,T5_M11,U1_M11,ZSPAN_M11,X0_M11,X2_M11,X1_M11
2023-06-23 19:00:00,SystemResetWarning,0827.4,5.00,000.00,032.6,025.3,000.0,040.1,032.0,31.9,0002.4,0017.55,0010.29,0009.49
2023-06-23 19:01:00,SystemResetWarning,0827.4,5.00,000.00,032.6,024.9,000.0,040.1,032.0,33.1,0002.3,0016.60,0010.25,0009.47
2023-06-23 19:02:00,SystemResetWarning,0827.4,5.02,000.00,032.4,025.2,000.0,040.1,031.6,34.5,0002.2,0016.60,0010.23,0009.44
2023-06-23 19:03:00,SystemResetWarning,0827.3,5.00,000.00,032.2,025.7,000.0,040.1,031.5,34.8,0002.5,0016.86,0010.29,0009.51
2023-06-23 19:04:00,SystemResetWarning,0827.3,5.01,000.00,032.2,026.2,000.0,040.1,031.5,34.9,0002.6,0017.04,0010.40,0009.61
2023-06-23 19:05:00,SystemResetWarning,0827.3,4.99,000.00,032.3,026.6,000.0,040.1,031.6,33.4,0002.7,0017.21,0010.57,0009.75
2023-06-23 19:06:00,SystemResetWarning,0827.3,5.00,000.00,032.3,027.0,000.0,040.1,031.7,34.1,0002.8,0017.48,0010.76,0009.87
2023-06-23 19:07:00,SystemResetWarning,0827.2,4.99,000.00,032.3,027.3,000.0,040.1,031.8,35.0,0002.8,0017.70,0010.95,0010.05
2023-06-23 19:08:00,SystemResetWarning,0827.3,5.04,000.00,032.4,027.6,000.0,040.1,031.9,34.0,0002.8,0018.15,0011.22,0010.28
2023-06-23 19:09:00,SystemResetWarning,0827.3,4.96,000.00,032.5,027.9,000.0,040.1,032.0,33.4,0003.0,0018.34,0011.43,0010.47
2023-06-23 19:10:00,SystemResetWarning,0827.2,5.01,000.00,032.5,028.1,000.0,040.2,032.0,33.7,0003.0,0018.29,0011.65,0010.65
2023-06-23 19:11:00,SystemResetWarning,0827.3,5.00,000.00,032.6,028.0,000.0,040.2,032.1,33.6,0003.0,0018.07,0011.83,0010.85
2023-06-23 19:12:00,SystemResetWarning,0827.2,4.99,000.00,032.6,026.5,000.0,040.2,032.1,33.0,0003.0,0018.25,0012.02,0011.03
2023-06-23 19:13:00,SystemResetWarning,0827.1,5.00,000.00,032.6,025.1,000.0,040.1,032.1,33.4,0002.9,0018.50,0012.16,0011.17
2023-06-23 19:14:00,SystemResetWarning,0827.1,5.01,000.00,032.6,024.9,000.0,040.1,031.9,33.7,0002.8,0019.09,0012.24,0011.21
2023-06-23 19:15:00,SystemResetWarning,0827.1,5.01,000.00,032.3,025.2,000.0,040.1,031.4,33.5,0002.7,0019.73,0012.32,0011.26
2023-06-23 19:16:00,SystemResetWarning,0827.1,5.00,000.00,032.1,025.7,000.0,040.1,031.4,33.7,0002.6,0019.85,0012.34,0011.28
2023-06-23 19:17:00,SystemResetWarning,0827.1,5.00,000.00,032.0,026.2,000.0,040.1,031.4,33.6,0002.6,0019.75,0012.31,0011.33
2023-06-23 19:18:00,SystemResetWarning,0827.1,4.99,000.00,032.0,026.7,000.0,040.1,031.5,34.5,0002.7,0020.04,0012.32,0011.36
2023-06-23 19:19:00,SystemResetWarning,0827.1,5.01,000.00,032.0,027.1,000.0,040.1,031.6,34.1,0002.7,0019.96,0012.29,0011.36
2023-06-23 19:20:00,SystemResetWarning,0827.1,4.98,000.00,031.9,027.4,000.0,040.1,031.7,35.0,0002.5,0019.86,0012.28,0011.38
2023-06-23 19:21:00,SystemResetWarning,0827.1,5.01,000.00,032.0,027.7,000.0,040.1,031.8,33.5,0002.5,0019.86,0012.26,0011.39
2023-06-23 19:22:00,SystemResetWarning,0827.1,4.99,000.00,032.0,027.9,000.0,040.1,031.9,33.4,0002.5,0019.79,0012.23,0011.38
2023-06-23 19:23:00,SystemResetWarning,0827.1,5.00,000.00,032.0,028.1,000.0,040.1,031.9,32.7,0002.6,0019.13,0012.19,0011.38
2023-06-23 19:24:00,SystemResetWarning,0827.1,5.00,000.00,032.0,027.8,000.0,040.0,032.0,33.0,0002.7,0019.48,0012.21,0011.39
2023-06-23 19:25:00,SystemResetWarning,0827.1,5.00,000.00,032.1,026.0,000.0,040.0,032.0,33.5,0002.7,0019.41,0012.20,0011.41
2023-06-23 19:26:00,SystemResetWarning,0827.0,5.00,000.00,032.0,024.9,000.0,039.9,031.9,34.5,0002.7,0018.82,0012.20,0011.41
2023-06-23 19:27:00,SystemResetWarning,0827.0,5.00,000.00,031.9,024.9,000.0,039.9,031.7,34.3,0002.8,0019.02,0012.21,0011.38
2023-06-23 19:28:00,SystemResetWarning,0827.0,5.02,000.00,031.7,025.3,000.0,039.8,031.4,36.2,0002.8,0019.10,0012.19,0011.34
2023-06-23 19:29:00,SystemResetWarning,0827.0,4.99,000.00,031.8,025.7,000.0,039.8,031.4,34.5,0002.9,0018.86,0012.13,0011.29
2023-06-23 19:30:00,SystemResetWarning,0827.0,5.00,000.00,031.8,026.2,000.0,039.8,031.5,34.1,0002.9,0018.69,0012.07,0011.24
2023-06-23 19:31:00,SystemResetWarning,0826.9,5.00,000.00,031.8,026.7,000.0,039.8,031.5,33.2,0002.9,0018.78,0012.05,0011.22
2023-06-23 19:32:00,SystemResetWarning,0826.9,4.98,000.00,031.8,027.1,000.0,039.8,031.6,33.4,0003.1,0018.67,0012.00,0011.18
2023-06-23 19:33:00,SystemResetWarning,0826.9,5.01,000.00,031.8,027.4,000.0,039.8,031.7,33.7,0003.1,0018.89,0011.98,0011.16
2023-06-23 19:34:00,SystemResetWarning,0826.9,5.00,000.00,031.8,027.7,000.0,039.8,031.7,34.8,0003.1,0018.99,0011.99,0011.15
2023-06-23 19:35:00,SystemResetWarning,0826.9,5.00,000.00,031.8,027.9,000.0,039.8,031.8,35.2,0003.3,0019.23,0011.97,0011.15
2023-06-23 19:36:00,SystemResetWarning,0826.9,5.01,000.00,031.9,028.1,000.0,039.8,032.0,34.8,0003.2,0018.81,0011.97,0011.14
2023-06-23 19:37:00,SystemResetWarning,0826.9,4.97,000.00,032.1,027.5,000.0,039.8,032.1,34.3,0003.2,0018.87,0012.00,0011.12
2023-06-23 19:38:00,SystemResetWarning,0826.9,5.01,000.00,032.2,025.7,000.0,039.8,032.1,33.8,0003.0,0019.74,0012.00,0011.12
2023-06-23 19:39:00,SystemResetWarning,0826.9,5.00,000.00,032.2,024.8,000.0,039.7,032.0,32.4,0002.9,0019.80,0011.92,0011.07
2023-06-23 19:40:00,SystemResetWarning,0826.9,5.01,000.00,032.1,024.9,000.0,039.7,031.7,32.3,0002.8,0020.21,0011.90,0011.00
2023-06-23 19:41:00,SystemResetWarning,0826.9,5.01,000.00,031.9,025.3,000.0,039.8,031.4,33.3,0002.6,0020.44,0011.88,0010.96
2023-06-23 19:42:00,SystemResetWarning,0826.9,4.99,000.00,031.8,025.8,000.0,039.8,031.4,32.6,0002.7,0020.70,0011.72,0010.83
2023-06-23 19:43:00,SystemResetWarning,0826.9,5.00,000.00,031.7,026.3,000.0,039.8,031.4,32.3,0002.5,0020.57,0011.65,0010.76
2023-06-23 19:44:00,SystemResetWarning,0826.9,5.00,000.00,031.7,026.8,000.0,039.8,031.5,33.1,0002.5,0020.81,0011.63,0010.76
2023-06-23 19:45:00,SystemResetWarning,0826.8,4.98,000.00,031.7,027.1,000.0,039.8,031.6,34.0,0002.5,0021.19,0011.59,0010.74
2023-06-23 19:46:00,SystemResetWarning,0826.8,5.00,000.00,031.6,027.5,000.0,039.8,031.6,34.3,0002.3,0020.80,0011.53,0010.66
2023-06-23 19:47:00,SystemResetWarning,0826.8,5.00,000.00,031.6,027.7,000.0,039.8,031.7,33.7,0002.4,0020.72,0011.46,0010.61
2023-06-23 19:48:00,SystemResetWarning,0826.8,5.00,000.00,031.6,028.0,000.0,039.8,031.7,35.0,0002.5,0021.10,0011.30,0010.50
2023-06-23 19:49:00,SystemResetWarning,0826.8,5.00,000.00,031.7,028.1,000.0,039.8,031.9,33.6,0002.8,0020.31,0011.19,0010.41
2023-06-23 19:50:00,SystemResetWarning,0826.9,4.99,000.00,031.8,027.2,000.0,039.8,032.0,33.6,0002.9,0019.99,0011.15,0010.37
2023-06-23 19:51:00,SystemResetWarning,0826.9,5.00,000.00,031.8,025.4,000.0,039.7,031.9,32.6,0002.8,0019.16,0011.14,0010.43
2023-06-23 19:52:00,SystemResetWarning,0826.9,5.00,000.00,031.8,024.8,000.0,039.6,031.9,34.2,0002.8,0018.86,0011.10,0010.42
2023-06-23 19:53:00,SystemResetWarning,0826.9,5.01,000.00,031.7,025.0,000.0,039.6,031.5,33.9,0002.7,0018.44,0011.13,0010.44
2023-06-23 19:54:00,SystemResetWarning,0826.9,5.01,000.00,031.5,025.4,000.0,039.6,031.3,33.8,0002.7,0018.85,0011.14,0010.43
2023-06-23 19:55:00,SystemResetWarning,0826.8,4.99,000.00,031.4,025.9,000.0,039.6,031.3,34.4,0002.8,0018.37,0011.10,0010.40
2023-06-23 19:56:00,SystemResetWarning,0826.8,4.99,000.00,031.3,026.4,000.0,039.6,031.3,34.6,0002.6,0017.78,0011.08,0010.36
2023-06-23 19:57:00,SystemResetWarning,0826.8,5.01,000.00,031.3,026.8,000.0,039.6,031.4,34.3,0002.5,0018.32,0011.11,0010.37
2023-06-23 19:58:00,SystemResetWarning,0826.6,5.00,000.00,031.3,027.2,000.0,039.6,031.5,34.9,0002.7,0018.29,0011.15,0010.39
2023-06-23 19:59:00,SystemResetWarning,0826.6,5.00,000.00,031.5,027.5,000.0,039.6,031.6,35.3,0002.6,0018.03,0011.20,0010.43
